Location: Grandview
(34.8900°N, 117.1058°W)
Time: 14:26:49
(UTC-08:00)

STRAND 1 - Visible Passes

Search period start: 24 November 2017 00:00
Search period end: 04 December 2017 00:00
Orbit: 768 x 781 km, 98.5° (Epoch: 24 November)

Date Brightness Start Highest point End Pass type
(mag) Time Alt. Az. Time Alt. Az. Time Alt. Az.
25 Nov ? 06:01:10 10° SE 06:05:58 42° ENE 06:10:48 10° N visible
26 Nov ? 05:28:43 10° ESE 05:32:22 20° ENE 05:36:01 10° NNE visible
28 Nov ? 05:58:45 10° SE 06:03:30 39° ENE 06:08:15 10° N visible
29 Nov ? 05:26:23 10° ESE 05:29:54 19° ENE 05:33:24 10° NNE visible
01 Dec ? 05:56:19 10° SE 06:01:00 37° ENE 06:05:42 10° N visible
02 Dec ? 05:24:04 10° ESE 05:27:25 18° ENE 05:30:46 10° NNE visible
